Weather History for Milton, FL

Change the Weather History Date:

Saturday, November 24, 2012

  Actual Average (KNSE) Record (KNSE)
Temperature  
Mean Temperature 51 °F -  
Max Temperature 61 °F 66 °F 82 °F (2010)
Min Temperature 39 °F 47 °F 37 °F (2003)
Degree Days  
Heating Degree Days 14    
Growing Degree Days 1 (Base 50)    
Moisture  
Dew Point 32 °F    
Average Humidity 52    
Maximum Humidity 80    
Minimum Humidity 28    
Precipitation  
Precipitation 0.00 in - - ()
Sea Level Pressure  
Sea Level Pressure 30.15 in    
Wind  
Wind Speed 11 mph (North)    
Max Wind Speed 13 mph    
Max Gust Speed 18 mph    
Visibility 10 miles    
Events      
Averages and records for this station are not official NWS values.
T = Trace of Precipitation, MM = Missing Value Source: NWS Daily Summary

Daily Weather History Graph

Daily Weather History Graph

Search for Another Location

Airport:

Trip Planner

Search our weather history database for the weather conditions in past years. The results will help you decide how hot, cold, wet, or windy it might be!

Date:

Astronomy

Nov. 24, 2012 Rise Set
Actual Time 6:22 AM CST 4:47 PM CST
Civil Twilight 5:56 AM CST 5:13 PM CST
Nautical Twilight 5:27 AM CST 5:42 PM CST
Astronomical Twilight 4:58 AM CST 6:11 PM CST
Moon 2:21 PM CST (11/24) 2:50 AM CST (11/24)
Length of Visible Light 11h 16m
Length of Day
10h 24m
Waxing Gibbous, 87% of the Moon is Illuminated
Nov 24
Waxing Gibbous
Nov 28
Full
Dec 6
Last Quarter
Dec 13
New
Dec 19
First Quarter

Hourly Weather History & Observations

Time (CST) Temp. Windchill Dew Point Humidity Pressure Visibility Wind Dir Wind Speed Gust Speed Precip Events Conditions
12:56 AM 55.9 °F - 46.0 °F 69% 30.12 in 10.0 mi NNW 12.7 mph - N/A   Clear
1:56 AM 53.1 °F - 45.0 °F 74% 30.12 in 10.0 mi NNW 12.7 mph - N/A   Clear
2:56 AM 50.0 °F - 41.0 °F 71% 30.13 in 10.0 mi North 12.7 mph - N/A   Clear
3:56 AM 48.0 °F - 39.0 °F 71% 30.13 in 10.0 mi NNW 8.1 mph - N/A   Clear
4:56 AM 46.0 °F 40.6 °F 37.9 °F 73% 30.16 in 10.0 mi NNW 11.5 mph - N/A   Clear
5:56 AM 43.0 °F 39.5 °F 37.0 °F 80% 30.19 in 10.0 mi NNW 5.8 mph - N/A   Clear
6:56 AM 43.0 °F 37.7 °F 36.0 °F 76% 30.20 in 10.0 mi NNW 9.2 mph - N/A   Clear
7:56 AM 46.9 °F - 36.0 °F 66% 30.21 in 10.0 mi North 10.4 mph - N/A   Clear
8:56 AM 50.0 °F - 35.1 °F 57% 30.21 in 10.0 mi North 11.5 mph - N/A   Clear
9:56 AM 54.0 °F - 34.0 °F 47% 30.21 in 10.0 mi North 11.5 mph - N/A   Clear
10:56 AM 57.0 °F - 30.9 °F 37% 30.19 in 10.0 mi North 11.5 mph - N/A   Clear
11:56 AM 57.9 °F - 30.0 °F 35% 30.15 in 10.0 mi North 6.9 mph - N/A   Clear
12:56 PM 60.1 °F - 28.9 °F 31% 30.13 in 10.0 mi North 11.5 mph 18.4 mph N/A   Clear
1:56 PM 61.0 °F - 28.9 °F 30% 30.11 in 10.0 mi NNW 12.7 mph 17.3 mph N/A   Clear
2:56 PM 60.1 °F - 27.0 °F 28% 30.12 in 10.0 mi North 12.7 mph - N/A   Clear
3:56 PM 57.9 °F - 28.0 °F 32% 30.12 in 10.0 mi North 10.4 mph - N/A   Clear
4:56 PM 50.0 °F - 28.9 °F 44% 30.13 in 10.0 mi NNW 6.9 mph - N/A   Clear
5:56 PM 48.9 °F - 27.0 °F 43% 30.14 in 10.0 mi NNW 9.2 mph - N/A   Clear
6:56 PM 48.0 °F - 26.1 °F 42% 30.15 in 10.0 mi North 9.2 mph - N/A   Clear
7:56 PM 48.0 °F - 25.0 °F 41% 30.15 in 10.0 mi North 9.2 mph - N/A   Clear
8:56 PM 44.1 °F 39.0 °F 26.1 °F 49% 30.16 in 10.0 mi North 9.2 mph - N/A   Clear
9:56 PM 43.0 °F 38.8 °F 26.1 °F 51% 30.15 in 10.0 mi North 6.9 mph - N/A   Clear
10:56 PM 41.0 °F 37.1 °F 25.0 °F 53% 30.14 in 10.0 mi North 5.8 mph - N/A   Clear
11:56 PM 39.0 °F 34.8 °F 25.0 °F 57% 30.13 in 10.0 mi North 5.8 mph - N/A   Clear